Temperature
18 18 18 17 17 17 17 17 17 17 17 17 17 17 17 17 17 17 17 17 17 17 17 16 16 16 16 16 16 16 16 16 16 16 16 15 15 15 15 15 15 15 15
18 18 17 17 17 17 17 17 17 17 17 17 17 17 17 17 17 17 17 17 17 17 17 16 16 16 16 16 16 16 16 16 16 16 16 15 15 15 15 15 15 15 15
17 17 17 17 17 17 17 17 17 17 17 17 17 17 17 17 17 17 17 17 17 17 16 16 16 16 16 16 16 16 16 16 16 16 16 15 15 15 15 15 15 15 15
17 17 17 17 17 17 17 17 17 17 17 17 17 17 17 17 17 17 17 17 16 16 16 16 16 16 16 16 16 16 16 16 16 16 16 15 15 15 15 15 15 15 15
17 17 17 17 17 17 17 17 17 17 17 17 17 17 17 17 16 17 16 16 16 16 16 16 16 16 16 16 16 16 16 16 16 16 16 15 15 15 15 15 15 15 15
17 17 17 17 17 17 17 17 17 17 17 17 17 17 17 17 17 16 16 16 16 16 16 16 16 16 16 16 16 16 16 16 16 15 15 15 15 15 15 15 15 15 15
17 17 17 17 17 17 17 17 17 17 17 17 17 17 17 17 17 16 16 16 16 16 16 16 16 16 16 16 16 16 16 16 16 15 15 15 15 15 15 15 15 15 15
17 17 17 17 17 17 17 17 17 17 17 17 17 16 16 16 17 17 17 17 16 16 16 16 16 16 16 16 16 16 16 15 15 15 15 15 15 15 15 15 15 15 15
17 17 17 17 17 17 17 17 17 17 17 17 17 17 17 17 17 17 17 17 17 17 16 16 16 16 16 16 16 16 16 15 15 15 15 15 15 15 15 15 15 15 15
17 17 17 17 17 17 17 17 17 17 17 17 17 17 17 17 17 17 17 17 17 17 17 16 16 16 16 16 16 16 16 15 15 15 15 15 15 15 15 15 15 15 14
17 17 17 17 17 17 17 17 17 17 17 17 17 17 17 17 17 17 17 17 17 17 17 17 16 16 16 16 16 16 16 15 15 15 15 15 15 15 15 15 15 14 14
17 17 17 17 17 17 17 17 17 17 17 17 17 17 17 17 17 17 17 17 17 17 17 17 16 16 16 16 16 16 16 15 15 15 15 15 15 15 14 14 14 14 14
17 17 17 17 17 17 17 17 17 17 17 17 17 17 17 17 17 17 17 17 17 16 16 17 17 16 16 16 16 16 16 15 15 15 15 15 14 14 14 14 14 14 14
17 17 17 17 17 17 17 17 16 17 17 17 16 16 16 17 17 17 17 17 17 16 16 16 16 16 16 16 16 16 16 15 15 15 15 14 14 14 14 14 13 13 13
17 17 17 17 17 17 17 17 16 16 16 16 16 16 16 16 16 16 16 16 16 16 16 16 16 16 16 16 16 15 15 15 15 15 14 14 14 14 13 13 13 13 13
17 17 17 17 17 16 16 16 16 16 16 16 16 16 16 16 16 16 16 16 16 16 16 16 16 16 16 16 15 15 15 15 14 14 14 14 13 13 13 13 13 12 12
17 17 17 17 16 16 16 16 16 16 16 16 16 16 16 16 16 16 16 16 16 16 16 16 16 15 15 15 15 15 14 14 14 14 13 13 13 12 12 12 12 12 11
17 17 16 16 16 16 16 16 16 16 16 16 16 16 16 15 15 15 15 16 16 16 16 16 15 15 15 14 14 14 14 14 13 13 13 12 12 12 12 11 11 11 11
16 16 16 16 16 16 16 15 15 15 15 15 15 15 15 15 15 15 15 15 15 15 15 15 15 14 14 14 14 13 13 13 13 12 12 12 11 11 11 10 10 10 10
16 16 16 16 16 15 15 15 15 15 15 15 15 15 15 15 15 15 15 15 15 15 15 14 14 14 13 13 13 13 12 12 12 11 11 11 10 10 10 10 9 9 9
16 16 16 15 15 15 15 15 15 15 15 15 14 14 14 14 14 14 14 14 14 14 14 13 13 13 12 12 12 12 11 11 11 10 10 10 9 9 9 9 8 8 8
16 16 15 15 15 15 15 15 15 14 14 14 14 14 14 14 14 14 14 13 13 13 13 13 12 12 12 11 11 11 11 10 10 9 9 9 8 8 8 8 7 7 7
15 15 15 15 15 15 15 14 14 14 14 14 14 14 13 13 13 13 13 13 12 12 12 12 12 11 11 11 11 10 10 10 9 8 8 8 7 7 7 7 6 6 6
15 15 15 15 14 14 14 14 14 14 14 13 13 13 13 13 12 12 12 12 12 11 11 11 11 11 10 10 10 10 9 9 8 7 7 7 6 6 6 6 6 5 5
15 14 14 14 14 14 14 14 13 13 13 13 12 12 12 12 12 12 12 11 11 10 10 10 10 9 9 9 9 9 8 8 7 7 6 6 6 5 5 5 5 5 4
14 14 14 14 13 13 13 13 13 13 12 12 12 12 11 11 11 11 11 10 10 10 9 9 9 8 8 8 8 7 7 7 7 6 5 5 5 5 4 4 4 4 4
Wind_Speed
4 4 4 4 5 5 5 4 4 4 4 5 5 7 7 7 7 6 7 8 9 9 9 9 9 8 8 8 8 7 7 7 7 7 6 6 6 6 6 5 5 5 5
6 4 3 3 4 5 5 4 3 3 3 3 3 6 6 7 7 7 6 7 9 9 9 9 9 9 8 8 7 7 7 7 7 7 6 6 6 6 6 6 5 5 5
8 6 4 3 4 5 5 4 3 3 3 2 2 3 5 6 6 7 7 6 7 8 9 9 9 8 8 8 8 7 8 8 8 7 7 6 6 6 6 6 6 6 6
10 7 4 4 5 5 4 3 2 2 2 2 2 1 3 4 5 6 6 6 7 7 8 9 9 9 9 8 8 8 8 9 9 8 8 7 7 7 7 7 6 6 7
11 8 5 5 6 4 3 3 2 2 2 3 2 1 1 2 3 5 6 7 7 7 7 8 8 9 9 9 9 9 9 9 9 9 9 9 9 8 8 8 8 7 7
11 9 6 6 6 4 3 3 3 2 2 3 2 2 0 1 2 3 5 6 7 8 8 7 7 8 9 10 9 9 8 8 9 9 9 8 8 8 8 8 8 7 7
11 9 6 5 6 5 5 5 3 3 2 2 3 2 1 0 2 3 4 4 6 7 7 7 7 7 7 9 10 9 8 8 8 8 9 8 8 7 8 7 7 7 7
11 10 7 5 6 5 5 5 4 3 2 3 3 2 0 2 1 2 3 4 5 6 7 8 8 8 8 7 8 9 9 8 8 8 8 8 7 7 7 7 7 7 7
12 10 9 7 6 6 6 6 6 6 4 2 2 3 3 3 2 1 2 3 4 4 5 6 8 9 8 8 8 8 9 9 9 7 7 7 7 7 7 6 6 6 6
10 11 10 9 7 6 6 7 6 5 5 3 2 1 2 3 3 1 1 1 2 3 4 4 6 7 8 8 8 9 9 8 7 7 6 6 6 6 6 5 5 4 4
8 9 9 8 7 6 6 6 6 6 5 5 4 3 2 1 1 2 2 1 1 1 2 3 3 4 6 7 7 7 8 8 7 7 6 6 5 5 4 4 3 3 3
4 6 8 8 7 6 7 6 6 7 6 5 4 4 4 3 3 3 3 2 1 1 1 0 2 3 4 5 7 7 8 8 7 6 6 5 4 4 3 3 2 1 1
5 6 6 6 6 7 7 7 6 6 7 6 6 5 4 4 3 4 3 2 1 1 1 1 1 1 2 4 5 6 6 7 6 6 5 5 4 4 3 3 2 2 2
6 6 7 7 7 7 7 7 6 6 6 6 7 6 4 4 4 4 4 4 2 0 0 1 1 1 0 2 3 4 4 5 5 6 6 5 5 5 4 4 4 4 4
5 6 7 7 7 7 7 6 5 6 6 6 6 6 5 4 4 4 4 4 5 3 3 1 1 1 1 3 3 4 5 5 5 6 6 5 5 5 5 5 5 4 4
5 5 6 6 6 6 6 6 5 5 6 6 5 6 5 4 4 4 4 3 4 4 3 1 1 1 2 3 5 6 6 7 6 6 6 6 6 6 5 5 5 5 4
5 5 6 6 6 6 5 5 5 6 6 5 5 6 5 4 4 4 3 3 4 4 4 2 1 1 2 3 5 7 7 7 7 7 7 6 6 6 6 5 5 5 5
5 6 5 5 6 5 5 6 6 5 6 6 5 5 5 4 4 4 4 4 4 4 4 4 1 1 2 3 4 6 6 7 8 9 9 8 8 7 7 6 5 5 5
4 4 5 5 5 5 5 5 6 5 5 5 5 5 5 5 5 3 4 4 3 4 3 4 3 1 2 2 4 5 7 7 8 9 10 10 10 9 9 7 6 6 6
3 4 4 4 4 4 4 5 5 5 5 4 4 4 5 5 5 5 4 4 4 5 5 5 3 2 2 2 3 3 4 4 5 8 10 11 12 12 12 10 8 7 7
3 3 3 3 3 3 4 4 4 5 5 4 3 2 2 3 4 4 4 4 5 5 5 5 3 2 2 2 2 2 4 4 5 5 5 6 8 9 9 10 9 9 9
3 3 3 3 2 2 3 5 5 5 4 5 4 4 4 5 7 8 8 8 7 6 5 4 3 3 2 2 2 4 4 3 2 3 3 4 5 5 6 7 8 8 8
4 4 3 3 3 2 4 6 7 6 6 5 5 5 5 6 8 8 11 13 12 10 8 6 5 3 3 2 4 4 3 3 3 1 2 3 3 3 5 7 9 9 9
4 4 4 4 4 4 6 7 9 7 7 6 5 6 7 6 7 10 11 12 11 10 9 8 7 6 5 4 4 5 5 5 4 4 3 2 2 3 4 6 9 10 10
4 4 4 5 5 5 7 9 10 7 7 7 7 7 8 8 11 14 13 13 12 11 17 20 18 16 15 13 9 6 5 5 4 3 4 2 2 2 3 3 7 9 9
5 5 5 5 5 5 7 9 9 7 8 7 7 7 9 10 13 13 12 12 12 9 9 11 13 14 14 14 13 8 4 4 3 2 3 2 2 2 2 2 5 7 8
Wind_Direction
147 146 145 142 135 131 128 121 117 118 120 129 143 152 157 159 163 167 174 178 178 176 172 170 168 167 165 164 166 166 164 161 159 160 162 164 167 166 170 168 164 166 166
164 159 158 161 158 151 146 139 135 128 120 127 142 159 166 166 172 178 184 190 191 189 187 186 184 181 180 180 182 181 182 180 176 178 180 181 182 187 190 191 189 186 189
178 174 170 179 185 170 152 136 126 116 118 119 129 153 166 176 180 187 192 199 203 202 200 200 198 195 193 195 197 198 194 194 193 194 195 196 199 203 202 203 208 208 209
187 181 181 191 186 171 159 145 136 127 124 129 138 153 164 179 191 197 201 207 209 212 214 215 212 210 210 210 209 209 206 205 205 207 209 212 215 218 218 218 220 223 226
191 185 188 194 179 164 167 173 146 146 153 152 154 147 167 190 199 205 209 212 215 215 218 224 224 223 223 225 223 220 217 215 214 215 217 220 223 225 226 228 231 234 239
192 186 190 190 178 166 170 169 145 136 142 149 143 119 83 218 208 220 224 222 221 221 221 224 228 233 234 233 232 229 226 222 220 221 223 226 227 227 228 231 235 239 244
190 187 192 183 178 180 184 172 148 145 138 132 111 76 20 349 222 229 235 231 230 227 222 224 227 232 239 241 240 236 232 229 228 227 228 230 231 232 232 236 240 244 249
192 193 188 183 184 177 175 175 159 150 162 160 140 120 22 335 303 246 233 230 235 230 226 227 226 229 232 237 242 240 238 237 235 231 229 229 231 232 233 236 240 244 248
196 195 191 187 185 182 187 187 178 167 170 179 164 151 161 215 258 294 249 236 231 223 230 227 228 231 230 231 239 241 239 239 237 233 227 224 224 229 231 232 234 238 244
196 196 192 190 187 188 190 194 187 178 161 172 180 190 173 160 164 235 303 263 237 234 235 234 234 234 231 229 233 235 233 233 233 229 224 222 221 223 226 229 232 233 238
200 197 194 191 189 193 195 192 181 182 177 176 176 170 161 135 148 164 229 291 321 272 248 239 239 240 234 225 229 227 221 221 222 222 223 222 217 215 215 217 223 229 240
200 199 196 194 193 194 196 197 190 186 190 185 184 178 171 168 184 179 200 224 238 296 315 280 243 242 234 218 218 213 210 213 215 215 212 207 201 195 185 179 187 210 260
202 207 202 197 196 198 195 190 189 194 194 191 193 198 195 195 169 168 173 191 207 275 347 16 322 258 228 203 204 202 197 197 196 194 190 185 176 165 154 140 117 81 49
205 201 199 199 198 195 194 187 193 200 196 199 202 196 197 203 188 182 175 167 172 225 335 294 357 358 214 172 174 164 154 167 171 170 168 165 155 144 131 118 105 90 74
204 197 197 199 200 193 190 184 195 201 195 200 200 196 200 205 198 199 189 179 174 197 228 252 295 354 89 103 122 124 127 131 144 148 150 147 142 135 125 118 113 102 84
197 187 192 196 198 196 190 186 194 199 194 200 194 191 201 204 200 197 198 196 188 186 203 213 229 5 63 105 100 107 106 105 109 123 127 126 129 126 120 111 102 96 87
192 189 192 193 193 194 188 187 197 194 194 197 195 194 204 198 193 192 187 185 186 175 190 199 89 46 64 83 86 94 93 89 84 95 109 113 114 111 108 105 101 94 82
194 190 186 190 196 196 192 191 200 198 192 192 194 192 203 199 197 192 188 191 189 182 177 180 148 78 67 83 88 84 81 81 83 81 89 91 90 90 91 92 92 88 75
189 183 182 189 194 194 194 195 195 191 187 187 189 193 198 190 197 195 187 188 184 171 159 157 158 118 82 83 84 78 71 65 77 76 76 73 76 77 73 70 70 70 64
168 175 178 185 187 183 184 186 183 179 173 172 182 191 193 191 193 184 176 172 157 142 135 134 135 119 99 87 100 100 83 63 63 67 71 71 71 71 67 63 63 61 57
151 150 156 168 174 177 188 181 175 168 161 150 140 142 150 145 151 151 156 154 149 143 138 135 132 114 107 112 118 114 112 93 61 51 69 63 62 61 58 57 58 58 56
116 118 128 139 148 172 159 156 149 142 139 136 127 112 102 99 101 99 100 106 118 137 146 138 133 130 131 126 115 122 124 121 97 26 68 60 53 55 48 52 52 53 49
103 105 106 106 105 105 125 132 132 131 127 127 126 120 108 99 101 103 92 83 78 85 108 128 126 127 134 140 133 119 104 96 97 43 72 62 37 45 35 40 41 38 31
96 97 97 104 102 89 103 117 118 112 108 103 102 108 110 101 102 110 102 87 75 65 78 89 98 93 91 101 114 124 118 101 87 47 45 71 22 21 21 22 29 26 21
92 86 87 93 96 86 94 108 115 109 101 92 88 91 103 103 104 107 104 100 91 81 80 86 86 83 80 81 91 98 100 99 78 41 23 60 22 358 7 5 8 11 10
100 95 84 83 93 92 94 105 113 115 110 102 90 86 91 104 108 107 110 110 106 100 95 86 77 71 70 67 66 69 86 94 90 66 18 41 23 7 5 350 344 351 357
Height
1571 1572 1574 1575 1577 1579 1580 1582 1584 1585 1586 1588 1589 1590 1591 1591 1592 1593 1594 1594 1595 1596 1597 1597 1598 1599 1600 1601 1601 1602 1602 1603 1604 1604 1605 1605 1606 1607 1607 1607 1608 1608 1608
1572 1573 1575 1576 1578 1579 1581 1583 1584 1586 1587 1588 1590 1590 1591 1592 1593 1594 1594 1595 1596 1596 1597 1598 1599 1599 1600 1601 1601 1602 1603 1603 1604 1604 1605 1606 1606 1607 1607 1607 1608 1608 1608
1572 1574 1575 1577 1578 1580 1582 1583 1585 1586 1588 1589 1590 1591 1592 1593 1593 1594 1595 1595 1596 1596 1597 1598 1599 1599 1600 1601 1601 1602 1603 1603 1604 1604 1605 1605 1606 1606 1607 1607 1607 1608 1608
1572 1574 1576 1577 1579 1580 1582 1583 1585 1586 1588 1589 1590 1591 1592 1593 1594 1594 1595 1595 1596 1597 1597 1598 1598 1599 1600 1600 1601 1601 1602 1602 1603 1604 1604 1605 1605 1606 1606 1606 1607 1607 1607
1571 1573 1575 1577 1578 1580 1582 1583 1585 1586 1588 1589 1590 1591 1592 1593 1593 1594 1595 1595 1596 1596 1597 1597 1598 1598 1599 1600 1600 1601 1601 1602 1602 1603 1603 1604 1604 1604 1605 1605 1605 1606 1606
1570 1572 1574 1576 1577 1579 1581 1582 1584 1586 1587 1588 1589 1590 1591 1592 1592 1593 1594 1595 1595 1596 1596 1597 1597 1598 1598 1599 1599 1600 1600 1601 1601 1602 1602 1602 1603 1603 1603 1604 1604 1604 1604
1568 1570 1572 1574 1576 1578 1580 1581 1583 1584 1586 1587 1588 1589 1590 1590 1591 1592 1593 1593 1594 1595 1595 1596 1596 1597 1597 1598 1598 1599 1599 1599 1600 1600 1601 1601 1601 1601 1602 1602 1602 1602 1602
1566 1568 1571 1573 1575 1576 1578 1580 1581 1583 1584 1585 1587 1588 1588 1590 1589 1590 1591 1592 1592 1593 1594 1594 1595 1595 1596 1597 1597 1597 1598 1598 1598 1599 1599 1599 1600 1600 1600 1600 1600 1600 1600
1564 1566 1569 1571 1573 1574 1576 1578 1579 1581 1582 1584 1585 1586 1587 1587 1588 1589 1589 1590 1590 1591 1592 1593 1593 1594 1595 1595 1596 1596 1596 1596 1596 1597 1597 1597 1598 1598 1598 1598 1598 1598 1598
1561 1564 1566 1568 1570 1572 1574 1576 1577 1579 1580 1582 1583 1584 1585 1585 1586 1586 1587 1588 1588 1589 1590 1591 1592 1592 1593 1593 1594 1594 1595 1595 1595 1595 1595 1596 1596 1596 1596 1596 1596 1596 1596
1559 1561 1563 1565 1567 1569 1571 1573 1575 1576 1578 1579 1580 1582 1583 1583 1584 1585 1585 1586 1587 1587 1588 1589 1590 1590 1591 1591 1592 1592 1593 1593 1593 1593 1594 1594 1594 1594 1594 1594 1593 1593 1593
1556 1558 1560 1562 1564 1566 1568 1570 1572 1574 1575 1577 1578 1579 1580 1581 1582 1583 1583 1584 1584 1585 1586 1586 1587 1588 1588 1589 1590 1590 1590 1591 1591 1591 1592 1592 1592 1591 1591 1591 1591 1590 1590
1552 1554 1557 1558 1560 1562 1564 1566 1568 1570 1572 1573 1574 1576 1577 1578 1579 1580 1581 1581 1582 1583 1583 1584 1584 1585 1586 1586 1587 1587 1588 1589 1589 1589 1589 1589 1589 1589 1589 1588 1588 1588 1587
1549 1551 1553 1555 1557 1559 1561 1563 1564 1566 1568 1570 1571 1572 1574 1575 1576 1577 1578 1579 1580 1580 1581 1581 1582 1583 1583 1584 1584 1585 1585 1586 1586 1587 1587 1587 1586 1586 1586 1585 1585 1585 1584
1546 1548 1549 1551 1553 1555 1557 1559 1560 1562 1564 1566 1567 1569 1570 1571 1572 1574 1575 1576 1578 1577 1578 1579 1579 1580 1581 1581 1581 1582 1583 1583 1583 1584 1584 1584 1584 1583 1583 1583 1582 1582 1581
1541 1543 1545 1547 1549 1551 1553 1555 1556 1558 1560 1561 1563 1564 1566 1567 1569 1570 1571 1572 1573 1574 1574 1575 1576 1577 1578 1578 1579 1579 1580 1580 1580 1580 1581 1581 1581 1581 1580 1580 1579 1579 1578
1537 1539 1541 1543 1544 1546 1548 1550 1552 1554 1555 1557 1559 1560 1561 1563 1564 1566 1567 1568 1569 1570 1571 1571 1573 1574 1574 1575 1576 1576 1577 1577 1577 1577 1577 1577 1578 1577 1577 1577 1576 1576 1575
1533 1535 1537 1539 1541 1542 1544 1545 1547 1549 1551 1552 1554 1555 1557 1558 1560 1561 1563 1564 1565 1566 1567 1567 1569 1570 1571 1572 1572 1573 1574 1574 1574 1574 1574 1574 1574 1574 1574 1573 1573 1572 1572
1530 1531 1533 1535 1537 1538 1540 1541 1543 1544 1546 1548 1549 1551 1552 1554 1555 1557 1558 1559 1560 1562 1563 1564 1564 1566 1567 1568 1569 1570 1570 1570 1571 1571 1571 1571 1571 1571 1571 1570 1570 1569 1568
1527 1528 1530 1532 1533 1535 1536 1538 1539 1540 1542 1543 1545 1547 1548 1550 1551 1552 1554 1555 1556 1558 1559 1560 1561 1562 1563 1564 1565 1566 1566 1567 1567 1567 1567 1568 1568 1568 1567 1567 1566 1566 1565
1525 1526 1527 1529 1530 1531 1533 1534 1536 1537 1538 1539 1541 1543 1544 1546 1547 1549 1550 1551 1553 1554 1555 1556 1557 1558 1559 1561 1562 1563 1563 1564 1564 1564 1565 1565 1565 1565 1564 1563 1563 1562 1562
1524 1525 1526 1527 1528 1529 1530 1531 1533 1534 1535 1536 1538 1539 1541 1542 1544 1545 1547 1548 1550 1551 1552 1553 1554 1555 1557 1558 1559 1560 1560 1561 1561 1562 1562 1562 1562 1562 1561 1560 1560 1559 1558
1523 1524 1524 1526 1526 1527 1528 1529 1530 1531 1532 1534 1535 1537 1538 1539 1540 1542 1544 1545 1547 1548 1550 1551 1552 1553 1554 1556 1557 1557 1558 1558 1558 1559 1559 1559 1559 1559 1559 1558 1557 1556 1555
1523 1523 1524 1525 1526 1526 1527 1527 1528 1530 1531 1532 1533 1535 1536 1537 1538 1540 1541 1543 1545 1546 1548 1549 1551 1552 1553 1553 1554 1555 1556 1556 1557 1557 1558 1558 1557 1557 1557 1556 1555 1554 1553
1522 1523 1523 1524 1525 1525 1526 1527 1527 1528 1529 1531 1532 1534 1535 1536 1538 1539 1540 1541 1543 1545 1547 1548 1549 1550 1551 1552 1553 1554 1554 1555 1555 1556 1556 1556 1556 1555 1555 1555 1554 1552 1551
1522 1522 1523 1524 1524 1525 1526 1527 1527 1528 1529 1530 1532 1534 1535 1536 1537 1538 1539 1541 1542 1544 1546 1547 1549 1550 1551 1552 1553 1554 1554 1554 1554 1555 1555 1555 1555 1554 1553 1553 1552 1551 1549